,,Stat5,,Stat1,,Stat2,,Stat3,,Stat4,,Wind1,,Wind1,
time,status,PA1M_AVG,status,PR1M_SUM,status,RH1M_AVG,status,SR1M_AVG,status,TA1M_AVG,status,W1dAve1m,status,W1sAve1m,
2002-01-20, 00:00:01,VALID,917.372,VALID,0,VALID,97.8245,VALID,0,VALID,19.7705,VALID,341,VALID,0.0742188,
2002-01-20, 00:01:00,VALID,917.363,VALID,0,VALID,97.9746,VALID,0,VALID,19.8284,VALID,240,VALID,0.550253,
2002-01-20, 00:02:00,VALID,917.33,VALID,0,VALID,98.0178,VALID,0,VALID,19.8712,VALID,211,VALID,0.396587,
2002-01-20, 00:03:00,VALID,917.3,VALID,0,VALID,98.0102,VALID,-0.0169808,VALID,19.8704,VALID,208,VALID,0.511102,
2002-01-20, 00:04:00,VALID,917.287,VALID,0,VALID,98.0585,VALID,-0.0169808,VALID,19.8901,VALID,204,VALID,0.381055,
2002-01-20, 00:05:00,VALID,917.28,VALID,0,VALID,97.9911,VALID,0,VALID,19.8903,VALID,196,VALID,0.337023,
2002-01-20, 00:06:00,VALID,917.273,VALID,0,VALID,97.808,VALID,-0.0509425,VALID,19.868,VALID,182,VALID,0.345017,
2002-01-20, 00:07:00,VALID,917.272,VALID,0,VALID,97.5944,VALID,-0.0169808,VALID,19.7899,VALID,168,VALID,0.429071,
2002-01-20, 00:08:00,VALID,917.256,VALID,0,VALID,97.5143,VALID,-0.0339617,VALID,19.7382,VALID,165,VALID,0.333333,
2002-01-20, 00:09:00,VALID,917.238,VALID,0,VALID,97.5155,VALID,-0.0169808,VALID,19.6992,VALID,161,VALID,0.335732,
2002-01-20, 00:10:00,VALID,917.215,VALID,0,VALID,97.4965,VALID,-0.0169808,VALID,19.6741,VALID,161,VALID,0.191602,
2002-01-20, 00:11:00,VALID,917.212,VALID,0,VALID,97.5181,VALID,-0.0339617,VALID,19.6545,VALID,161,VALID,0.0405016,
2002-01-20, 00:12:00,VALID,917.229,VALID,0,VALID,97.3604,VALID,-0.0169808,VALID,19.6224,VALID,115,VALID,0.129317,
2002-01-20, 00:13:00,VALID,917.239,VALID,0,VALID,97.026,VALID,-0.0339617,VALID,19.5313,VALID,50,VALID,0.373972,
2002-01-20, 00:14:00,VALID,917.24,VALID,0,VALID,96.7589,VALID,0,VALID,19.4418,VALID,38,VALID,0.648638,
2002-01-20, 00:15:00,VALID,917.253,VALID,0,VALID,97.0705,VALID,-0.0339617,VALID,19.3991,VALID,35,VALID,0.774704,
2002-01-20, 00:16:00,VALID,917.234,VALID,0,VALID,97.5232,VALID,-0.0169808,VALID,19.454,VALID,32,VALID,0.874383,
2002-01-20, 00:17:00,VALID,917.21,VALID,0,VALID,97.6669,VALID,0,VALID,19.4706,VALID,31,VALID,0.621094,
2002-01-20, 00:18:00,VALID,917.192,VALID,0,VALID,97.7851,VALID,-0.0169808,VALID,19.4902,VALID,31,VALID,0.462023,
2002-01-20, 00:19:00,VALID,917.163,VALID,0,VALID,97.8703,VALID,-0.0169808,VALID,19.4766,VALID,29,VALID,0.487753,
2002-01-20, 00:20:00,VALID,917.159,VALID,0,VALID,98.0687,VALID,-0.0339617,VALID,19.525,VALID,29,VALID,0.328331,
2002-01-20, 00:21:00,VALID,917.154,VALID,0,VALID,98.1488,VALID,-0.0339617,VALID,19.5733,VALID,24,VALID,0.303348,
2002-01-20, 00:22:00,VALID,917.12,VALID,0,VALID,98.1857,VALID,-0.0509425,VALID,19.5996,VALID,20,VALID,0.340794,
2002-01-20, 00:23:00,VALID,917.09,VALID,0,VALID,98.2225,VALID,0,VALID,19.6351,VALID,20,VALID,0.344778,
2002-01-20, 00:24:00,VALID,917.074,VALID,0,VALID,98.1653,VALID,0,VALID,19.6483,VALID,20,VALID,0.266518,
2002-01-20, 00:25:00,VALID,917.034,VALID,0,VALID,98.0687,VALID,-0.0169808,VALID,19.6289,VALID,20,VALID,0.524639,
2002-01-20, 00:26:00,VALID,917.031,VALID,0,VALID,97.9225,VALID,0,VALID,19.5892,VALID,21,VALID,0.559679,
2002-01-20, 00:27:00,VALID,917.013,VALID,0,VALID,97.953,VALID,0,VALID,19.5931,VALID,27,VALID,0.604646,
2002-01-20, 00:28:00,VALID,917.007,VALID,0,VALID,98.0967,VALID,0,VALID,19.6319,VALID,28,VALID,0.685238,
2002-01-20, 00:29:00,VALID,916.993,VALID,0,VALID,98.2251,VALID,-0.0169808,VALID,19.6903,VALID,28,VALID,0.588682,
2002-01-20, 00:30:00,VALID,916.99,VALID,0,VALID,98.2734,VALID,-0.0509425,VALID,19.7355,VALID,28,VALID,0.519531,
2002-01-20, 00:31:00,VALID,916.996,VALID,0,VALID,98.309,VALID,0,VALID,19.7773,VALID,28,VALID,0.503205,
2002-01-20, 00:32:00,VALID,916.997,VALID,0,VALID,98.2149,VALID,-0.0339617,VALID,19.7773,VALID,28,VALID,0.520032,
2002-01-20, 00:33:00,VALID,917.009,VALID,0,VALID,98.0967,VALID,-0.0169808,VALID,19.7549,VALID,28,VALID,0.614443,
2002-01-20, 00:34:00,VALID,917.01,VALID,0,VALID,98.0394,VALID,-0.0509425,VALID,19.7288,VALID,27,VALID,0.634215,
2002-01-20, 00:35:00,VALID,916.992,VALID,0,VALID,98.1768,VALID,-0.0509425,VALID,19.7678,VALID,24,VALID,0.711857,
2002-01-20, 00:36:00,VALID,916.969,VALID,0,VALID,98.2378,VALID,-0.0339617,VALID,19.8093,VALID,24,VALID,0.598047,
2002-01-20, 00:37:00,VALID,916.928,VALID,0,VALID,98.2225,VALID,-0.0169808,VALID,19.8451,VALID,24,VALID,0.401521,
2002-01-20, 00:38:00,VALID,916.883,VALID,0,VALID,98.2048,VALID,0.0679233,VALID,19.853,VALID,24,VALID,0.302083,
2002-01-20, 00:39:00,VALID,916.845,VALID,0,VALID,98.1895,VALID,0.0679233,VALID,19.8789,VALID,29,VALID,0.580387,
2002-01-20, 00:40:00,VALID,916.841,VALID,0,VALID,98.1679,VALID,0.0509425,VALID,19.9055,VALID,33,VALID,0.734766,
2002-01-20, 00:41:00,VALID,916.819,VALID,0,VALID,98.0801,VALID,0.0509425,VALID,19.8985,VALID,35,VALID,0.85,
2002-01-20, 00:42:00,VALID,916.818,VALID,0,VALID,98.028,VALID,0.0679233,VALID,19.8848,VALID,30,VALID,0.90605,
2002-01-20, 00:43:00,VALID,916.825,VALID,0,VALID,97.9835,VALID,0.0509425,VALID,19.8883,VALID,25,VALID,0.953742,
2002-01-20, 00:44:00,VALID,916.832,VALID,0,VALID,97.8716,VALID,0.101885,VALID,19.8689,VALID,30,VALID,1.30889,
2002-01-20, 00:45:00,VALID,916.855,VALID,0,VALID,98.0204,VALID,0.0679233,VALID,19.8779,VALID,29,VALID,1.64143,
2002-01-20, 00:46:00,VALID,916.87,VALID,0,VALID,98.0738,VALID,0.0679233,VALID,19.9211,VALID,27,VALID,1.48881,
2002-01-20, 00:47:00,VALID,916.879,VALID,0,VALID,98.1234,VALID,0.0169808,VALID,19.9308,VALID,27,VALID,1.33834,
2002-01-20, 00:48:00,VALID,916.872,VALID,0,VALID,98.1259,VALID,0.0679233,VALID,19.9467,VALID,26,VALID,1.14106,
2002-01-20, 00:49:00,VALID,916.874,VALID,0,VALID,98.0992,VALID,0.0849042,VALID,19.9497,VALID,19,VALID,1.02908,
2002-01-20, 00:50:00,VALID,916.849,VALID,0,VALID,98.0903,VALID,0.0679233,VALID,19.9529,VALID,26,VALID,1.05429,
2002-01-20, 00:51:00,VALID,916.823,VALID,0,VALID,98.0649,VALID,0.0849042,VALID,19.9465,VALID,32,VALID,1.20038,
2002-01-20, 00:52:00,VALID,916.801,VALID,0,VALID,98.0267,VALID,0.0339617,VALID,19.947,VALID,22,VALID,0.747997,
2002-01-20, 00:53:00,VALID,916.79,VALID,0,VALID,97.9924,VALID,0,VALID,19.938,VALID,20,VALID,0.799137,
2002-01-20, 00:54:00,VALID,916.779,VALID,0,VALID,97.9403,VALID,-0.0169808,VALID,19.9184,VALID,22,VALID,1.02687,
2002-01-20, 00:55:00,VALID,916.752,VALID,0,VALID,97.986,VALID,-0.0509425,VALID,19.9316,VALID,18,VALID,0.972556,
2002-01-20, 00:56:00,VALID,916.747,VALID,0,VALID,98.0394,VALID,-0.0339617,VALID,19.9477,VALID,36,VALID,1.12014,
2002-01-20, 00:57:00,VALID,916.736,VALID,0,VALID,98.0433,VALID,-0.0339617,VALID,19.9577,VALID,36,VALID,0.752858,
2002-01-20, 00:58:00,VALID,916.716,VALID,0,VALID,98.0598,VALID,-0.0509425,VALID,19.9907,VALID,31,VALID,0.54387,
2002-01-20, 00:59:00,VALID,916.709,VALID,0,VALID,98.0585,VALID,-0.0169808,VALID,19.98,VALID,38,VALID,0.727407,
2002-01-20, 01:00:00,VALID,916.705,VALID,0,VALID,98.0534,VALID,-0.0169808,VALID,19.9897,VALID,29,VALID,0.583333,
2002-01-20, 01:01:00,VALID,916.715,VALID,0,VALID,98.0394,VALID,-0.0339617,VALID,20.0131,VALID,48,VALID,0.561699,
2002-01-20, 01:02:00,VALID,916.717,VALID,0,VALID,98.0242,VALID,-0.0509425,VALID,20.0126,VALID,46,VALID,0.532399,
2002-01-20, 01:03:00,VALID,916.718,VALID,0,VALID,98.0305,VALID,-0.0339617,VALID,20.0287,VALID,51,VALID,0.560156,
2002-01-20, 01:04:00,VALID,916.736,VALID,0,VALID,97.9873,VALID,-0.0509425,VALID,20.0451,VALID,52,VALID,0.255962,
2002-01-20, 01:05:00,VALID,916.742,VALID,0,VALID,97.9809,VALID,-0.0169808,VALID,20.0613,VALID,52,VALID,0.0110677,
2002-01-20, 01:06:00,VALID,916.745,VALID,0,VALID,97.9441,VALID,-0.0339617,VALID,20.0581,VALID,52,VALID,0,
2002-01-20, 01:07:00,VALID,916.723,VALID,0,VALID,97.9059,VALID,0,VALID,20.0769,VALID,52,VALID,0,
2002-01-20, 01:08:00,VALID,916.705,VALID,0,VALID,97.9097,VALID,0,VALID,20.0869,VALID,52,VALID,0,
2002-01-20, 01:09:00,VALID,916.68,VALID,0,VALID,97.8792,VALID,-0.0169808,VALID,20.0864,VALID,42,VALID,0.0719572,
2002-01-20, 01:10:00,VALID,916.654,VALID,0,VALID,97.8614,VALID,0,VALID,20.0966,VALID,32,VALID,0.151367,
2002-01-20, 01:11:00,VALID,916.628,VALID,0,VALID,97.836,VALID,-0.0169808,VALID,20.1097,VALID,12,VALID,0.544071,
2002-01-20, 01:12:00,VALID,916.608,VALID,0,VALID,97.7406,VALID,-0.0339617,VALID,20.1127,VALID,357,VALID,0.615076,
2002-01-20, 01:13:00,VALID,916.579,VALID,0,VALID,97.6834,VALID,-0.0169808,VALID,20.106,VALID,350,VALID,0.58724,
2002-01-20, 01:14:00,VALID,916.552,VALID,0,VALID,97.6173,VALID,-0.0339617,VALID,20.0831,VALID,320,VALID,0.528646,
2002-01-20, 01:15:00,VALID,916.537,VALID,0,VALID,97.5995,VALID,-0.0339617,VALID,20.0802,VALID,313,VALID,0.352829,
2002-01-20, 01:16:00,VALID,916.519,VALID,0,VALID,97.5982,VALID,-0.0169808,VALID,20.0667,VALID,312,VALID,0.177154,
2002-01-20, 01:17:00,VALID,916.543,VALID,0,VALID,97.5944,VALID,-0.0169808,VALID,20.0677,VALID,4,VALID,0.566501,
2002-01-20, 01:18:00,VALID,916.577,VALID,0,VALID,97.663,VALID,0,VALID,20.0735,VALID,19,VALID,1.19299,
2002-01-20, 01:19:00,VALID,916.605,VALID,0,VALID,97.7762,VALID,-0.0339617,VALID,20.0993,VALID,10,VALID,0.736914,
2002-01-20, 01:20:00,VALID,916.637,VALID,0,VALID,97.7597,VALID,0,VALID,20.1058,VALID,357,VALID,0.644631,
2002-01-20, 01:21:00,VALID,916.659,VALID,0,VALID,97.7355,VALID,-0.0679233,VALID,20.0968,VALID,3,VALID,0.767578,
2002-01-20, 01:22:00,VALID,916.674,VALID,0,VALID,97.8144,VALID,-0.0509425,VALID,20.0896,VALID,12,VALID,0.846012,
2002-01-20, 01:23:00,VALID,916.7,VALID,0,VALID,97.8741,VALID,-0.0169808,VALID,20.0869,VALID,11,VALID,0.839227,
2002-01-20, 01:24:00,VALID,916.715,VALID,0,VALID,97.9492,VALID,-0.0339617,VALID,20.0998,VALID,18,VALID,0.545608,
2002-01-20, 01:25:00,VALID,916.707,VALID,0,VALID,98.0331,VALID,-0.0679233,VALID,20.1127,VALID,19,VALID,0.865234,
2002-01-20, 01:26:00,VALID,916.711,VALID,0,VALID,98.0382,VALID,-0.0339617,VALID,20.1189,VALID,21,VALID,0.835069,
2002-01-20, 01:27:00,VALID,916.685,VALID,0,VALID,98.0801,VALID,-0.0509425,VALID,20.1222,VALID,31,VALID,0.590372,
2002-01-20, 01:28:00,VALID,916.665,VALID,0,VALID,98.1094,VALID,-0.0679233,VALID,20.1289,VALID,9,VALID,0.329564,
2002-01-20, 01:29:00,VALID,916.647,VALID,0,VALID,98.1793,VALID,-0.0679233,VALID,20.1512,VALID,7,VALID,0.49858,
2002-01-20, 01:30:00,VALID,916.638,VALID,0,VALID,98.1412,VALID,-0.0339617,VALID,20.1609,VALID,25,VALID,0.768914,
2002-01-20, 01:31:00,VALID,916.641,VALID,0,VALID,98.1412,VALID,-0.0339617,VALID,20.1609,VALID,23,VALID,0.509375,
2002-01-20, 01:32:00,VALID,916.656,VALID,0.2,VALID,98.1463,VALID,-0.0339617,VALID,20.1739,VALID,30,VALID,0.532689,
2002-01-20, 01:33:00,VALID,916.677,VALID,0.2,VALID,98.1119,VALID,-0.0679233,VALID,20.1741,VALID,55,VALID,0.397615,
2002-01-20, 01:34:00,VALID,916.697,VALID,0.4,VALID,98.0102,VALID,-0.0509425,VALID,20.1413,VALID,88,VALID,0.510074,
2002-01-20, 01:35:00,VALID,916.693,VALID,0.2,VALID,98.0127,VALID,-0.0169808,VALID,20.1055,VALID,90,VALID,0.487981,
2002-01-20, 01:36:00,VALID,916.703,VALID,0,VALID,98.0471,VALID,-0.0169808,VALID,20.0966,VALID,100,VALID,0.34565,
2002-01-20, 01:37:00,VALID,916.699,VALID,0.2,VALID,98.1361,VALID,-0.0339617,VALID,20.0866,VALID,86,VALID,0.164679,
2002-01-20, 01:38:00,VALID,916.677,VALID,0,VALID,98.1335,VALID,-0.0169808,VALID,20.0799,VALID,81,VALID,0.294531,
2002-01-20, 01:39:00,VALID,916.665,VALID,0,VALID,98.2353,VALID,0,VALID,20.0928,VALID,81,VALID,0.015625,
2002-01-20, 01:40:01,VALID,916.631,VALID,0,VALID,98.2912,VALID,-0.0169808,VALID,20.1256,VALID,40,VALID,0.412584,
2002-01-20, 01:41:00,VALID,916.6,VALID,0,VALID,98.3065,VALID,0.0169808,VALID,20.1249,VALID,15,VALID,0.736842,
2002-01-20, 01:42:00,VALID,916.579,VALID,0.2,VALID,98.3192,VALID,-0.0509425,VALID,20.1251,VALID,1,VALID,0.639063,
2002-01-20, 01:43:00,VALID,916.538,VALID,0,VALID,98.2645,VALID,0,VALID,20.106,VALID,351,VALID,0.476563,
2002-01-20, 01:44:00,VALID,916.528,VALID,0,VALID,98.2543,VALID,0.0169808,VALID,20.0836,VALID,330,VALID,0.351974,
2002-01-20, 01:45:00,VALID,916.497,VALID,0,VALID,98.2747,VALID,0,VALID,20.0605,VALID,323,VALID,0.24375,
2002-01-20, 01:46:00,VALID,916.47,VALID,0,VALID,98.337,VALID,-0.0169808,VALID,20.0667,VALID,323,VALID,0,
2002-01-20, 01:47:00,VALID,916.441,VALID,0,VALID,98.3739,VALID,0,VALID,20.0831,VALID,323,VALID,0,
2002-01-20, 01:48:00,VALID,916.445,VALID,0,VALID,98.4324,VALID,-0.0339617,VALID,20.0995,VALID,329,VALID,0.000822368,
2002-01-20, 01:49:00,VALID,916.462,VALID,0.2,VALID,98.4921,VALID,-0.0169808,VALID,20.1351,VALID,17,VALID,0.189145,
2002-01-20, 01:50:00,VALID,916.508,VALID,0,VALID,98.4909,VALID,-0.0339617,VALID,20.1609,VALID,38,VALID,0.607264,
2002-01-20, 01:51:00,VALID,916.532,VALID,0,VALID,98.468,VALID,0,VALID,20.158,VALID,46,VALID,0.547461,
2002-01-20, 01:52:00,VALID,916.558,VALID,0.2,VALID,98.4006,VALID,-0.0509425,VALID,20.1448,VALID,83,VALID,0.606771,
2002-01-20, 01:53:00,VALID,916.554,VALID,0,VALID,98.3065,VALID,-0.0339617,VALID,20.0799,VALID,128,VALID,0.722155,
2002-01-20, 01:54:01,VALID,916.557,VALID,0.2,VALID,98.3739,VALID,-0.0169808,VALID,20.0608,VALID,143,VALID,1.02344,
2002-01-20, 01:55:00,VALID,916.541,VALID,0,VALID,98.3853,VALID,-0.0339617,VALID,20.0312,VALID,153,VALID,0.78766,
2002-01-20, 01:56:00,VALID,916.531,VALID,0,VALID,98.4489,VALID,0,VALID,20.0382,VALID,147,VALID,0.831572,
2002-01-20, 01:57:00,VALID,916.517,VALID,0,VALID,98.4883,VALID,0,VALID,20.0315,VALID,134,VALID,0.446484,
2002-01-20, 01:58:00,VALID,916.505,VALID,0.2,VALID,98.4845,VALID,-0.0169808,VALID,20.0349,VALID,134,VALID,0.543997,
2002-01-20, 01:59:00,VALID,916.477,VALID,0,VALID,98.4794,VALID,-0.0169808,VALID,20.0218,VALID,133,VALID,0.470954,
2002-01-20, 02:00:00,VALID,916.447,VALID,0,VALID,98.4769,VALID,-0.0169808,VALID,20.0093,VALID,157,VALID,0.515008,
2002-01-20, 02:01:00,VALID,916.422,VALID,0,VALID,98.4959,VALID,-0.0169808,VALID,19.9929,VALID,155,VALID,0.0734375,
2002-01-20, 02:02:00,VALID,916.406,VALID,0,VALID,98.5303,VALID,-0.0169808,VALID,19.9964,VALID,155,VALID,0.0015625,
2002-01-20, 02:03:01,VALID,916.383,VALID,0,VALID,98.5761,VALID,0,VALID,20.0156,VALID,155,VALID,0,
2002-01-20, 02:04:00,VALID,916.386,VALID,0,VALID,98.5837,VALID,0,VALID,20.0123,VALID,155,VALID,0,
2002-01-20, 02:05:01,VALID,916.36,VALID,0.2,VALID,98.6206,VALID,-0.0339617,VALID,20.0282,VALID,155,VALID,0,
2002-01-20, 02:06:00,VALID,916.36,VALID,0,VALID,98.6346,VALID,-0.0169808,VALID,20.0382,VALID,155,VALID,0,
2002-01-20, 02:07:01,VALID,916.354,VALID,0,VALID,98.6295,VALID,0,VALID,20.0543,VALID,155,VALID,0,
2002-01-20, 02:08:00,VALID,916.348,VALID,0,VALID,98.5583,VALID,-0.0169808,VALID,20.018,VALID,123,VALID,0.129808,
2002-01-20, 02:09:00,VALID,916.328,VALID,0,VALID,98.5315,VALID,-0.0339617,VALID,19.986,VALID,81,VALID,0.591363,
2002-01-20, 02:10:01,VALID,916.332,VALID,0,VALID,98.5519,VALID,0,VALID,19.9698,VALID,75,VALID,0.539063,
2002-01-20, 02:11:00,VALID,916.313,VALID,0.2,VALID,98.5837,VALID,0,VALID,19.9738,VALID,58,VALID,0.546074,
2002-01-20, 02:12:00,VALID,916.3,VALID,0,VALID,98.6002,VALID,-0.0169808,VALID,19.9701,VALID,35,VALID,0.608108,
2002-01-20, 02:13:00,VALID,916.269,VALID,0,VALID,98.6117,VALID,0,VALID,19.9706,VALID,11,VALID,0.533053,
2002-01-20, 02:14:00,VALID,916.229,VALID,0,VALID,98.6371,VALID,0,VALID,19.9736,VALID,2,VALID,0.463199,
2002-01-20, 02:15:01,VALID,916.167,VALID,0.2,VALID,98.6256,VALID,-0.0169808,VALID,19.9442,VALID,347,VALID,0.550495,
2002-01-20, 02:16:00,VALID,916.14,VALID,0,VALID,98.6053,VALID,0,VALID,19.9122,VALID,342,VALID,0.463341,
2002-01-20, 02:17:00,VALID,916.121,VALID,0,VALID,98.6256,VALID,0,VALID,19.9087,VALID,343,VALID,0.303421,
2002-01-20, 02:18:00,VALID,916.133,VALID,0.2,VALID,98.6562,VALID,0,VALID,19.9249,VALID,343,VALID,0.251906,
2002-01-20, 02:19:00,VALID,916.132,VALID,0,VALID,98.6778,VALID,0,VALID,19.9249,VALID,58,VALID,0.60617,
2002-01-20, 02:20:01,VALID,916.158,VALID,0.2,VALID,98.6346,VALID,-0.0339617,VALID,19.9119,VALID,77,VALID,1.01267,
2002-01-20, 02:21:00,VALID,916.163,VALID,0.2,VALID,98.6091,VALID,-0.0169808,VALID,19.8834,VALID,86,VALID,1.06597,
2002-01-20, 02:22:00,VALID,916.141,VALID,0.2,VALID,98.6218,VALID,-0.0339617,VALID,19.8672,VALID,101,VALID,1.05569,
2002-01-20, 02:23:00,VALID,916.128,VALID,0,VALID,98.6524,VALID,-0.0169808,VALID,19.8605,VALID,122,VALID,0.815028,
2002-01-20, 02:24:00,VALID,916.131,VALID,0.2,VALID,98.6816,VALID,-0.0169808,VALID,19.8543,VALID,129,VALID,0.825195,
2002-01-20, 02:25:01,VALID,916.109,VALID,0,VALID,98.7172,VALID,-0.0169808,VALID,19.857,VALID,137,VALID,0.539885,
2002-01-20, 02:26:00,VALID,916.092,VALID,0.2,VALID,98.7414,VALID,0,VALID,19.8766,VALID,142,VALID,0.742839,
2002-01-20, 02:27:01,VALID,916.087,VALID,0,VALID,98.7477,VALID,0,VALID,19.8836,VALID,146,VALID,0.775493,
2002-01-20, 02:28:00,VALID,916.081,VALID,0.2,VALID,98.7643,VALID,-0.0169808,VALID,19.8893,VALID,153,VALID,1.39824,
2002-01-20, 02:29:00,VALID,916.063,VALID,0.2,VALID,98.7579,VALID,0,VALID,19.8958,VALID,148,VALID,1.40707,
2002-01-20, 02:30:00,VALID,916.047,VALID,0,VALID,98.7528,VALID,0,VALID,19.8826,VALID,141,VALID,1.44593,
2002-01-20, 02:31:00,VALID,916.039,VALID,0.2,VALID,98.7719,VALID,-0.0339617,VALID,19.8761,VALID,143,VALID,1.30195,
2002-01-20, 02:32:00,VALID,916.011,VALID,0,VALID,98.7643,VALID,0,VALID,19.8764,VALID,145,VALID,1.21034,
2002-01-20, 02:33:00,VALID,915.981,VALID,0,VALID,98.777,VALID,0,VALID,19.8602,VALID,151,VALID,1.36064,
2002-01-20, 02:34:00,VALID,915.955,VALID,0,VALID,98.7871,VALID,0,VALID,19.8665,VALID,137,VALID,1.18446,
2002-01-20, 02:35:01,VALID,915.93,VALID,0.2,VALID,98.8024,VALID,0,VALID,19.8503,VALID,159,VALID,0.940705,
2002-01-20, 02:36:01,VALID,915.904,VALID,0,VALID,98.8266,VALID,0,VALID,19.8672,VALID,148,VALID,1.10557,
2002-01-20, 02:37:01,VALID,915.891,VALID,0,VALID,98.8215,VALID,-0.0339617,VALID,19.857,VALID,143,VALID,0.885135,
2002-01-20, 02:38:00,VALID,915.893,VALID,0,VALID,98.838,VALID,-0.0849042,VALID,19.8677,VALID,114,VALID,0.590701,
2002-01-20, 02:39:00,VALID,915.882,VALID,0,VALID,98.8406,VALID,-0.101885,VALID,19.8548,VALID,106,VALID,0.406672,
2002-01-20, 02:40:01,VALID,915.865,VALID,0,VALID,98.8545,VALID,-0.0679233,VALID,19.8516,VALID,118,VALID,0.534766,
2002-01-20, 02:41:00,VALID,915.857,VALID,0,VALID,98.8762,VALID,-0.101885,VALID,19.8578,VALID,99,VALID,0.107372,
2002-01-20, 02:42:00,VALID,915.857,VALID,0,VALID,98.894,VALID,-0.0849042,VALID,19.8645,VALID,99,VALID,0.0341797,
2002-01-20, 02:43:00,VALID,915.845,VALID,0,VALID,98.8901,VALID,-0.0849042,VALID,19.8575,VALID,105,VALID,0.204975,
2002-01-20, 02:44:01,VALID,915.831,VALID,0,VALID,98.9003,VALID,-0.0679233,VALID,19.868,VALID,105,VALID,0.00719572,
2002-01-20, 02:45:00,VALID,915.822,VALID,0,VALID,98.9092,VALID,-0.0849042,VALID,19.8702,VALID,105,VALID,0,
2002-01-20, 02:46:00,VALID,915.811,VALID,0,VALID,98.9245,VALID,-0.0849042,VALID,19.9,VALID,105,VALID,0,
2002-01-20, 02:47:00,VALID,915.8,VALID,0,VALID,98.9168,VALID,-0.0849042,VALID,19.9032,VALID,105,VALID,0,
2002-01-20, 02:48:00,VALID,915.783,VALID,0,VALID,98.9181,VALID,-0.0849042,VALID,19.8836,VALID,105,VALID,0,
2002-01-20, 02:49:00,VALID,915.759,VALID,0,VALID,98.9258,VALID,-0.101885,VALID,19.8998,VALID,105,VALID,0,
2002-01-20, 02:50:01,VALID,915.735,VALID,0,VALID,98.9219,VALID,-0.118866,VALID,19.9067,VALID,204,VALID,0.424006,
2002-01-20, 02:51:00,VALID,915.695,VALID,0,VALID,98.9194,VALID,-0.101885,VALID,19.9,VALID,247,VALID,0.571957,
2002-01-20, 02:52:00,VALID,915.648,VALID,0,VALID,98.9143,VALID,-0.0679233,VALID,19.8873,VALID,247,VALID,0.540625,
2002-01-20, 02:53:00,VALID,915.61,VALID,0,VALID,98.9168,VALID,0,VALID,19.8667,VALID,253,VALID,0.297081,
2002-01-20, 02:54:01,VALID,915.591,VALID,0,VALID,98.9346,VALID,0,VALID,19.8694,VALID,259,VALID,0.0520148,
2002-01-20, 02:55:01,VALID,915.565,VALID,0,VALID,98.9321,VALID,0.0169808,VALID,19.8856,VALID,259,VALID,0.0419408,
2002-01-20, 02:56:00,VALID,915.553,VALID,0,VALID,98.9499,VALID,0.0169808,VALID,19.8918,VALID,259,VALID,0.0436699,
2002-01-20, 02:57:01,VALID,915.555,VALID,0,VALID,98.9537,VALID,0.0169808,VALID,19.8789,VALID,259,VALID,0.015625,
2002-01-20, 02:58:00,VALID,915.548,VALID,0,VALID,98.9626,VALID,0.0169808,VALID,19.8918,VALID,246,VALID,0.101357,
2002-01-20, 02:59:00,VALID,915.538,VALID,0,VALID,98.9652,VALID,0.0169808,VALID,19.8883,VALID,172,VALID,0.54668,
2002-01-20, 03:00:00,VALID,915.548,VALID,0,VALID,98.9372,VALID,0,VALID,19.8886,VALID,156,VALID,0.613064,
2002-01-20, 03:01:01,VALID,915.574,VALID,0,VALID,98.9385,VALID,0.0169808,VALID,19.8794,VALID,151,VALID,1.01098,
2002-01-20, 03:02:01,VALID,915.577,VALID,0,VALID,98.9156,VALID,0,VALID,19.8431,VALID,150,VALID,0.971628,
2002-01-20, 03:03:00,VALID,915.576,VALID,0,VALID,98.9118,VALID,0,VALID,19.8441,VALID,145,VALID,0.85692,
2002-01-20, 03:04:01,VALID,915.586,VALID,0,VALID,98.9296,VALID,0,VALID,19.8307,VALID,147,VALID,0.843961,
2002-01-20, 03:05:00,VALID,915.584,VALID,0,VALID,98.9321,VALID,0,VALID,19.814,VALID,144,VALID,0.97759,
2002-01-20, 03:06:01,VALID,915.577,VALID,0,VALID,98.9486,VALID,0.0509425,VALID,19.8108,VALID,154,VALID,0.564732,
2002-01-20, 03:07:01,VALID,915.574,VALID,0,VALID,98.9537,VALID,0.0169808,VALID,19.8048,VALID,139,VALID,0.338141,
2002-01-20, 03:08:00,VALID,915.589,VALID,0,VALID,98.9601,VALID,-0.0169808,VALID,19.8016,VALID,139,VALID,0.0744358,
2002-01-20, 03:09:01,VALID,915.595,VALID,0,VALID,98.9677,VALID,0.0169808,VALID,19.8081,VALID,139,VALID,0,
2002-01-20, 03:10:00,VALID,915.616,VALID,0,VALID,98.9652,VALID,0,VALID,19.8086,VALID,139,VALID,0,
2002-01-20, 03:11:01,VALID,915.607,VALID,0,VALID,98.9677,VALID,0.0169808,VALID,19.8086,VALID,139,VALID,0,
2002-01-20, 03:12:00,VALID,915.595,VALID,0,VALID,98.9741,VALID,0.0169808,VALID,19.7981,VALID,139,VALID,0,
2002-01-20, 03:13:01,VALID,915.574,VALID,0,VALID,98.9881,VALID,0.0169808,VALID,19.8178,VALID,139,VALID,0,
2002-01-20, 03:14:00,VALID,915.56,VALID,0,VALID,98.983,VALID,0.0169808,VALID,19.8143,VALID,138,VALID,0,
2002-01-20, 03:15:01,VALID,915.531,VALID,0,VALID,98.997,VALID,0.0679233,VALID,19.8307,VALID,134,VALID,0,
2002-01-20, 03:16:00,VALID,915.509,VALID,0,VALID,98.9868,VALID,0.0339617,VALID,19.8108,VALID,129,VALID,0,
2002-01-20, 03:17:00,VALID,915.501,VALID,0,VALID,98.983,VALID,0.0169808,VALID,19.8143,VALID,125,VALID,0,
2002-01-20, 03:18:00,VALID,915.505,VALID,0,VALID,98.9626,VALID,0.0339617,VALID,19.8078,VALID,120,VALID,0.0117188,
2002-01-20, 03:19:00,VALID,915.513,VALID,0,VALID,98.9601,VALID,0.0169808,VALID,19.7718,VALID,101,VALID,0.824219,
2002-01-20, 03:20:01,VALID,915.508,VALID,0,VALID,98.9614,VALID,0.0169808,VALID,19.7663,VALID,109,VALID,0.746194,
2002-01-20, 03:21:01,VALID,915.505,VALID,0,VALID,98.9715,VALID,0,VALID,19.77,VALID,87,VALID,0.417763,
2002-01-20, 03:22:01,VALID,915.516,VALID,0,VALID,98.9855,VALID,0,VALID,19.7666,VALID,62,VALID,0.387109,
2002-01-20, 03:23:01,VALID,915.52,VALID,0,VALID,99.0046,VALID,-0.0679233,VALID,19.7802,VALID,44,VALID,0.747461,
2002-01-20, 03:24:01,VALID,915.528,VALID,0,VALID,99.0135,VALID,-0.0849042,VALID,19.7937,VALID,54,VALID,0.842147,
2002-01-20, 03:25:01,VALID,915.523,VALID,0,VALID,99.0097,VALID,-0.101885,VALID,19.7934,VALID,87,VALID,0.589844,
2002-01-20, 03:26:01,VALID,915.516,VALID,0,VALID,98.9944,VALID,-0.101885,VALID,19.7773,VALID,114,VALID,0.66887,
2002-01-20, 03:27:01,VALID,915.487,VALID,0,VALID,98.9982,VALID,-0.101885,VALID,19.7673,VALID,143,VALID,0.992788,
2002-01-20, 03:28:01,VALID,915.468,VALID,0,VALID,99.0122,VALID,-0.0679233,VALID,19.7904,VALID,148,VALID,1.09101,
2002-01-20, 03:29:01,VALID,915.448,VALID,0,VALID,99.0275,VALID,-0.118866,VALID,19.7768,VALID,126,VALID,0.901843,
2002-01-20, 03:30:01,VALID,915.455,VALID,0,VALID,99.0262,VALID,-0.101885,VALID,19.7932,VALID,140,VALID,0.81901,
2002-01-20, 03:31:01,VALID,915.446,VALID,0,VALID,99.0338,VALID,-0.0849042,VALID,19.7932,VALID,151,VALID,1.25065,
2002-01-20, 03:32:01,VALID,915.442,VALID,0,VALID,99.0377,VALID,-0.0849042,VALID,19.8096,VALID,144,VALID,1.11739,
2002-01-20, 03:33:01,VALID,915.436,VALID,0,VALID,99.0326,VALID,-0.101885,VALID,19.8197,VALID,161,VALID,1.7576,